Location: Ponte Samoggia
(44.5667°N, 11.1333°E)
Time: 16:51:22
(UTC+00:00)

Cosmos 1536 Rocket - Pass Details

Date: 26 May 2022
Orbit: 604 x 632 km, 82.5° (Epoch: 06 July)

Event Time Altitude Azimuth Distance (km) Brightness Sun altitude
Exits shadow 02:08:10 20° 226° (SW) 1,440 4.8 -13.1°
Maximum altitude 02:10:43 38° 284° (WNW) 947 4.3 -12.8°
Drops below altitude 10° 02:14:51 10° 353° (N) 1,990 6.7 -12.3°
Sets 02:17:12 0° 2° (N) 2,896 7.8 -12.0°
